AirNav   TITAN Aviation Fuels
 
 1072 users online  

WI58 Winfield Airport
Bristol, Wisconsin, USA

GOING TO BRISTOL?


FAA INFORMATION EFFECTIVE 20 MAY 2021

Location

FAA Identifier: WI58
Lat/Long: 42-31-20.0690N 088-01-40.2950W
42-31.334483N 088-01.671583W
42.5222414,-88.0278597
(estimated)
Elevation: 770 ft. / 235 m (estimated)
Variation: 01W (1985)
From city: 3 miles SE of BRISTOL, WI
Time zone: UTC -5 (UTC -6 during Standard Time)
Zip code: 53104

Airport Operations

Airport use: Private use. Permission required prior to landing
Activation date: 01/1972
Control tower: no
ARTCC: CHICAGO CENTER
FSS: GREEN BAY FLIGHT SERVICE STATION
Attendance: IRREGULAR
Wind indicator: yes
Segmented circle: no

Airport Communications

WX ASOS at ENW (6 nm NE): PHONE 262-652-7730
WX ASOS at UGN (9 nm SE): PHONE 847-782-0876
WX AWOS-3 at BUU (16 nm NW): 125.275 (262-757-0907)
WX ASOS at RAC (17 nm NE): 121.425 (262-635-0959)

Nearby radio navigation aids

VOR radial/distance  VOR name  Freq  Var
OBKr351/18.4NORTHBROOK VOR/DME113.0002W
BAEr160/37.4BADGER VOR/DME116.4002E

 
NDB name  Hdg/Dist  Freq  Var  ID
CODEE181/2.338902WEN . -.
WAUKE292/10.637903WUG ..- --.

Airport Services

Airframe service: NONE
Powerplant service: NONE

Runway Information

Runway 18/36

Dimensions: 2000 x 100 ft. / 610 x 30 m
Surface: turf
RUNWAY 18  RUNWAY 36
Traffic pattern: leftleft
Obstructions: treespline

Runway 5/23

Dimensions: 1500 x 100 ft. / 457 x 30 m
Surface: turf
RUNWAY 5  RUNWAY 23
Traffic pattern: leftleft
Obstructions: polenone

Runway 9/27

Dimensions: 1200 x 100 ft. / 366 x 30 m
Surface: turf
RUNWAY 9  RUNWAY 27
Traffic pattern: leftleft
Obstructions: nonebldgs trees

Airport Ownership and Management from official FAA records

Ownership: Privately-owned
Owner: SOFTWING FLIGHT, LLC
18120 WINFIELD ROAD
BRISTOL, WI 53104
Phone 847-910-7150
Manager: PATRCIA SHARPE-GREGG
332 W LAKE STREET
LIBERTYVILLE, IL 60048
Phone (847) 287-2765

Airport Operational Statistics

Aircraft based on the field: 15
Single engine airplanes: 5
Ultralights: 10
    

Additional Remarks

FOR CD CTC CHICAGO ARTCC AT 630-906-8921.

Instrument Procedures

There are no published instrument procedures at WI58.

Some nearby airports with instrument procedures:

KENW - Kenosha Regional Airport (6 nm NE)
KUGN - Waukegan NTL Airport (9 nm SE)
C81 - Campbell Airport (12 nm S)
KBUU - Burlington Municipal Airport (16 nm NW)
C02 - Grand Geneva Resort Airport (17 nm W)
10C - Galt Field Airport (17 nm SW)
KRAC - Batten International Airport (17 nm NE)
 
Loc | Ops | Rwys | IFR | FBO | Links
Com | Nav | Svcs | Stats | Notes
Area around WI58 (Winfield Airport)
 
Road maps at: MapQuest Bing Google
 
Aerial photo
WARNING: Photo may not be current or correct
Aerial photo of WI58 (Winfield Airport)
Photo by Patricia Sharpe-Gregg
Taken in 2010

Do you have a better or more recent aerial photo of Winfield Airport that you would like to share? If so, please send us your photo.

 
Sectional chart

 
Airport distance calculator
Flying to Winfield Airport? Find the distance to fly.

From to WI58

Sunrise and sunset
Times for 16-Jun-2021
 Local
(UTC-5)
 Zulu
(UTC)
Morning civil twilight04:4009:40
Sunrise05:1510:15
Sunset20:3001:30
Evening civil twilight21:0502:05

Current date and time
Zulu (UTC)  16-Jun-2021 12:57:18
Local (UTC-5)  16-Jun-2021 07:57:18
 
METAR
KENW 
6nm NE 
161253Z 03005KT 10SM CLR 19/09 A3017 RMK AO2 SLP213 T01890094 $
KUGN 
10nm SE 
161155Z 03005KT 10SM CLR 16/11 A3014 RMK AO2 SLP201 T01610106 10161 20117 53006
KBUU 
15nm NW 
161235Z AUTO 02003KT 10SM 15/10 A3017 RMK AO2 T01540098 PWINO
KRAC 
17nm NE 
161253Z AUTO 02006KT 10SM CLR 18/09 A3018 RMK AO2 SLP218 T01780094
TAF
KENW 
6nm NE 
161120Z 1612/1712 02005KT P6SM SKC FM161500 04007KT P6SM SKC FM162300 11008KT P6SM SKC FM170600 18004KT P6SM SKC
NOTAMs
Click for the latest NOTAMs
NOTAMs are issued by the DoD/FAA and will open in a separate window not controlled by AirNav.

 

 
 

Would you like to see your business listed on this page?

 If your business provides an interesting product or service to pilots, flight crews, aircraft, or users of the Winfield Airport, you should consider listing it here.  To start the listing process, click on the button below
 
Add a business
 

Other Pages about Winfield Airport

Update a link
 
Copyright © AirNav, LLC. All rights reserved. Privacy Policy  Contact